Location: Clair
(33.8067°N, 117.9845°W)
Time: 08:37:47
(UTC+00:00)

Cosmos 372 Rocket - Pass Details

Date: 14 February 2026
Orbit: 732 x 763 km, 74.1° (Epoch: 12 March)

Event Time Altitude Azimuth Distance (km) Brightness Sun altitude
Rises 13:57:18 0° 208° (SSW) 3,143 7.0 -8.9°
Reaches altitude 10° 13:59:41 10° 212° (SSW) 2,226 6.2 -8.4°
Maximum altitude 14:04:35 53° 289° (WNW) 903 4.0 -7.4°
Drops below altitude 10° 14:09:33 10° 7° (N) 2,252 6.4 -6.4°
Sets 14:11:59 0° 12° (NNE) 3,183 7.2 -5.9°
